Hourly Weather Saint George's

Today, 4 July, Saturday

Time Temperature Precipitation Wind Pressure Humidity
00:00 +28°C° 0 mm 7 mps 752 mmHg 79%
01:00 +28°C° 0 mm 7 mps 752 mmHg 79%
02:00 +28°C° 0 mm 7 mps 751 mmHg 79%
03:00 +28°C° 0 mm 7 mps 751 mmHg 79%
04:00 +28°C° 0 mm 7 mps 751 mmHg 79%
05:00 +28°C° 0 mm 7 mps 751 mmHg 79%
06:00 +29°C° 0 mm 7 mps 752 mmHg 78%
07:00 +29°C° 0 mm 7 mps 752 mmHg 77%
08:00 +29°C° 0 mm 7 mps 752 mmHg 76%
09:00 +29°C° 0 mm 7 mps 752 mmHg 76%
10:00 +30°C° 0 mm 7 mps 752 mmHg 75%
11:00 +30°C° 0 mm 7 mps 752 mmHg 75%
12:00 +30°C° 0 mm 7 mps 752 mmHg 74%
13:00 +30°C° 0 mm 7 mps 751 mmHg 72%
14:00 +30°C° 0 mm 6 mps 751 mmHg 71%
15:00 +30°C° 0 mm 6 mps 751 mmHg 71%
16:00 +29°C° 0 mm 6 mps 751 mmHg 71%
17:00 +29°C° 0 mm 6 mps 751 mmHg 71%
18:00 +29°C° 0 mm 6 mps 751 mmHg 73%
19:00 +28°C° 0 mm 6 mps 751 mmHg 76%
20:00 +28°C° 0 mm 7 mps 752 mmHg 78%
21:00 +28°C° 0.1 mm 7 mps 752 mmHg 80%
22:00 +28°C° 0.1 mm 7 mps 752 mmHg 81%
23:00 +28°C° 0.1 mm 8 mps 752 mmHg 83%

Tomorrow, 5 July, Sunday

Time Temperature Precipitation Wind Pressure Humidity
00:00 +28°C° 0 mm 8 mps 752 mmHg 80%
01:00 +28°C° 0 mm 8 mps 752 mmHg 78%
02:00 +28°C° 0 mm 8 mps 751 mmHg 76%
03:00 +28°C° 0 mm 7 mps 751 mmHg 76%
04:00 +28°C° 0 mm 7 mps 751 mmHg 76%
05:00 +28°C° 0 mm 7 mps 751 mmHg 76%
06:00 +28°C° 0 mm 7 mps 752 mmHg 76%
07:00 +28°C° 0 mm 7 mps 752 mmHg 75%
08:00 +29°C° 0 mm 7 mps 752 mmHg 75%
09:00 +29°C° 0 mm 7 mps 753 mmHg 73%
10:00 +30°C° 0 mm 7 mps 753 mmHg 71%
11:00 +30°C° 0 mm 7 mps 753 mmHg 69%
12:00 +30°C° 0 mm 7 mps 753 mmHg 70%
13:00 +30°C° 0 mm 7 mps 752 mmHg 71%
14:00 +30°C° 0 mm 7 mps 752 mmHg 71%
15:00 +30°C° 0 mm 7 mps 751 mmHg 72%
16:00 +30°C° 0 mm 7 mps 751 mmHg 74%
17:00 +29°C° 0 mm 7 mps 751 mmHg 75%
18:00 +29°C° 0 mm 7 mps 751 mmHg 76%
19:00 +29°C° 0 mm 7 mps 751 mmHg 78%
20:00 +29°C° 0 mm 7 mps 752 mmHg 79%
21:00 +28°C° 0.1 mm 7 mps 752 mmHg 82%
22:00 +28°C° 0.1 mm 7 mps 752 mmHg 84%
23:00 +28°C° 0.1 mm 7 mps 753 mmHg 86%

Day after tomorrow, 6 July, Monday

Time Temperature Precipitation Wind Pressure Humidity
00:00 +28°C° 0.2 mm 7 mps 752 mmHg 85%
01:00 +28°C° 0.2 mm 7 mps 752 mmHg 85%
02:00 +28°C° 0.2 mm 6 mps 751 mmHg 85%
03:00 +28°C° 0.2 mm 6 mps 751 mmHg 84%
04:00 +28°C° 0.2 mm 6 mps 751 mmHg 84%
05:00 +28°C° 0.2 mm 6 mps 751 mmHg 84%
06:00 +28°C° 0.4 mm 6 mps 752 mmHg 84%
07:00 +28°C° 0.4 mm 6 mps 752 mmHg 84%
08:00 +28°C° 0.4 mm 7 mps 752 mmHg 83%
09:00 +29°C° 0.9 mm 7 mps 752 mmHg 83%
10:00 +29°C° 0.9 mm 7 mps 753 mmHg 83%
11:00 +29°C° 0.9 mm 7 mps 753 mmHg 83%
12:00 +29°C° 0.7 mm 7 mps 752 mmHg 83%
13:00 +29°C° 0.7 mm 7 mps 752 mmHg 83%
14:00 +29°C° 0.7 mm 7 mps 751 mmHg 83%
15:00 +29°C° 0.6 mm 7 mps 751 mmHg 83%
16:00 +29°C° 0.6 mm 7 mps 751 mmHg 84%
17:00 +29°C° 0.6 mm 7 mps 750 mmHg 84%
18:00 +28°C° 0.5 mm 7 mps 751 mmHg 85%
19:00 +28°C° 0.5 mm 7 mps 751 mmHg 86%
20:00 +28°C° 0.5 mm 7 mps 752 mmHg 86%
21:00 +28°C° 0.5 mm 7 mps 752 mmHg 86%
22:00 +28°C° 0.5 mm 7 mps 752 mmHg 86%
23:00 +28°C° 0.5 mm 7 mps 752 mmHg 85%

7 July, Tuesday

Time Temperature Precipitation Wind Pressure Humidity
00:00 +28°C° 0.3 mm 7 mps 751 mmHg 85%
01:00 +28°C° 0.3 mm 7 mps 751 mmHg 85%
02:00 +28°C° 0.3 mm 6 mps 750 mmHg 84%
03:00 +27°C° 4 mm 7 mps 750 mmHg 87%
04:00 +27°C° 4 mm 7 mps 750 mmHg 89%
05:00 +26°C° 4 mm 8 mps 750 mmHg 92%
06:00 +27°C° 1.5 mm 7 mps 751 mmHg 89%
07:00 +28°C° 1.5 mm 6 mps 751 mmHg 87%
08:00 +28°C° 1.5 mm 6 mps 752 mmHg 84%
09:00 +28°C° 1.5 mm 6 mps 752 mmHg 86%
10:00 +27°C° 1.5 mm 6 mps 752 mmHg 87%
11:00 +27°C° 1.5 mm 7 mps 752 mmHg 88%
12:00 +28°C° 0.6 mm 6 mps 752 mmHg 84%
13:00 +29°C° 0.6 mm 5 mps 751 mmHg 80%
14:00 +29°C° 0.6 mm 4 mps 751 mmHg 75%
15:00 +29°C° 0.2 mm 4 mps 751 mmHg 76%
16:00 +29°C° 0.2 mm 4 mps 751 mmHg 76%
17:00 +29°C° 0.2 mm 4 mps 750 mmHg 76%
18:00 +29°C° 0 mm 4 mps 751 mmHg 78%
19:00 +28°C° 0 mm 5 mps 751 mmHg 80%
20:00 +28°C° 0 mm 5 mps 751 mmHg 83%
21:00 +28°C° 0 mm 5 mps 752 mmHg 82%
22:00 +28°C° 0 mm 5 mps 752 mmHg 82%
23:00 +28°C° 0 mm 5 mps 752 mmHg 81%

8 July, Wednesday

Time Temperature Precipitation Wind Pressure Humidity
00:00 +28°C° 0 mm 5 mps 752 mmHg 83%
01:00 +28°C° 0 mm 5 mps 751 mmHg 84%
02:00 +28°C° 0 mm 6 mps 751 mmHg 85%
03:00 +28°C° 0 mm 6 mps 751 mmHg 85%
04:00 +28°C° 0 mm 5 mps 751 mmHg 84%
05:00 +28°C° 0 mm 5 mps 751 mmHg 84%
06:00 +28°C° 0 mm 5 mps 751 mmHg 83%
07:00 +29°C° 0 mm 5 mps 752 mmHg 81%
08:00 +29°C° 0 mm 5 mps 752 mmHg 80%
09:00 +29°C° 0.1 mm 6 mps 752 mmHg 78%
10:00 +30°C° 0.1 mm 6 mps 752 mmHg 77%
11:00 +30°C° 0.1 mm 6 mps 752 mmHg 76%
12:00 +30°C° 0 mm 6 mps 752 mmHg 76%
13:00 +30°C° 0 mm 7 mps 752 mmHg 77%
14:00 +30°C° 0 mm 7 mps 751 mmHg 77%
15:00 +30°C° 0 mm 7 mps 751 mmHg 77%
16:00 +30°C° 0 mm 7 mps 751 mmHg 77%
17:00 +29°C° 0 mm 7 mps 751 mmHg 77%
18:00 +29°C° 0 mm 7 mps 751 mmHg 78%
19:00 +29°C° 0 mm 7 mps 751 mmHg 79%
20:00 +28°C° 0 mm 7 mps 752 mmHg 80%
21:00 +28°C° 0 mm 7 mps 752 mmHg 82%
22:00 +28°C° 0 mm 7 mps 753 mmHg 83%
23:00 +28°C° 0 mm 7 mps 753 mmHg 85%

9 July, Thursday

Time Temperature Precipitation Wind Pressure Humidity
00:00 +28°C° 0 mm 7 mps 752 mmHg 83%
01:00 +28°C° 0 mm 7 mps 752 mmHg 82%
02:00 +28°C° 0 mm 7 mps 751 mmHg 81%
03:00 +28°C° 0 mm 7 mps 752 mmHg 81%
04:00 +28°C° 0 mm 7 mps 752 mmHg 81%
05:00 +28°C° 0 mm 7 mps 752 mmHg 81%
06:00 +28°C° 0.1 mm 7 mps 752 mmHg 81%
07:00 +29°C° 0.1 mm 8 mps 752 mmHg 80%
08:00 +29°C° 0.1 mm 9 mps 753 mmHg 79%
09:00 +29°C° 0 mm 8 mps 753 mmHg 76%
10:00 +31°C° 0 mm 8 mps 753 mmHg 72%
11:00 +31°C° 0 mm 8 mps 753 mmHg 69%
12:00 +30°C° 0 mm 7 mps 753 mmHg 70%
13:00 +30°C° 0 mm 7 mps 753 mmHg 71%
14:00 +30°C° 0 mm 7 mps 752 mmHg 72%
15:00 +30°C° 0 mm 7 mps 752 mmHg 73%
16:00 +30°C° 0 mm 7 mps 751 mmHg 74%
17:00 +30°C° 0 mm 7 mps 751 mmHg 75%
18:00 +29°C° 0 mm 7 mps 751 mmHg 78%
19:00 +29°C° 0 mm 8 mps 752 mmHg 81%
20:00 +28°C° 0 mm 8 mps 752 mmHg 84%
21:00 +28°C° 0 mm 8 mps 752 mmHg 82%
22:00 +28°C° 0 mm 8 mps 753 mmHg 81%
23:00 +28°C° 0 mm 8 mps 753 mmHg 80%
Show more